When you browse on this site, cookies collect data to enhance your experience and personalize the content and advertising you see.
Visit our Privacy Policy to learn more. By continuing to use the site, you agree to this use of cookies and data.
  • în România
  • Lista ţărilor
  • Pe 7 zile
  • Temperatura apei
  • Hartă satelitară
  • Meteo pe hartă
  • Widget-uri
  • user-avatar
    Intrare

    Meteo pe oră la Guwahati

    Astăzi, 22 Aprilie, Luni

    Timp Temperatura Precipitaţii Vânt Presiune Umiditate
    00:00 +24°C° 0 mm 0 m/s 753 mmHg 56%
    01:00 +26°C° 0 mm 1 m/s 752 mmHg 56%
    02:00 +25°C° 0 mm 1 m/s 752 mmHg 56%
    03:00 +25°C° 0 mm 1 m/s 752 mmHg 57%
    04:00 +25°C° 0 mm 1 m/s 752 mmHg 58%
    05:00 +25°C° 0 mm 1 m/s 752 mmHg 60%
    06:00 +24°C° 0 mm 0 m/s 753 mmHg 64%
    07:00 +27°C° 0.8 mm 1 m/s 753 mmHg 61%
    08:00 +28°C° 0.8 mm 1 m/s 753 mmHg 59%
    09:00 +29°C° 0.8 mm 2 m/s 753 mmHg 57%
    10:00 +31°C° 0.1 mm 2 m/s 753 mmHg 51%
    11:00 +32°C° 0.1 mm 2 m/s 753 mmHg 45%
    12:00 +34°C° 0 mm 4 m/s 753 mmHg 42%
    13:00 +35°C° 0 mm 3 m/s 753 mmHg 39%
    14:00 +36°C° 0 mm 2 m/s 752 mmHg 37%
    15:00 +37°C° 0 mm 2 m/s 751 mmHg 34%
    16:00 +36°C° 0 mm 2 m/s 751 mmHg 38%
    17:00 +34°C° 0 mm 2 m/s 752 mmHg 42%
    18:00 +30°C° 0 mm 3 m/s 752 mmHg 48%
    19:00 +29°C° 0 mm 2 m/s 752 mmHg 51%
    20:00 +28°C° 0 mm 2 m/s 753 mmHg 54%
    21:00 +27°C° 0 mm 1 m/s 753 mmHg 57%
    22:00 +27°C° 0 mm 1 m/s 753 mmHg 58%
    23:00 +26°C° 0 mm 1 m/s 754 mmHg 59%

    Mâine, 23 Aprilie, Marţi

    Timp Temperatura Precipitaţii Vânt Presiune Umiditate
    00:00 +26°C° 0 mm 1 m/s 754 mmHg 60%
    01:00 +26°C° 0 mm 1 m/s 753 mmHg 61%
    02:00 +25°C° 0 mm 1 m/s 753 mmHg 62%
    03:00 +25°C° 0 mm 1 m/s 753 mmHg 63%
    04:00 +25°C° 0 mm 1 m/s 753 mmHg 65%
    05:00 +25°C° 0 mm 1 m/s 753 mmHg 67%
    06:00 +25°C° 0 mm 1 m/s 754 mmHg 69%
    07:00 +27°C° 0 mm 2 m/s 754 mmHg 61%
    08:00 +29°C° 0 mm 2 m/s 754 mmHg 54%
    09:00 +31°C° 0 mm 3 m/s 755 mmHg 46%
    10:00 +34°C° 0 mm 3 m/s 755 mmHg 41%
    11:00 +36°C° 0 mm 3 m/s 754 mmHg 36%
    12:00 +38°C° 0 mm 2 m/s 754 mmHg 31%
    13:00 +38°C° 0 mm 2 m/s 754 mmHg 30%
    14:00 +37°C° 0 mm 1 m/s 753 mmHg 28%
    15:00 +39°C° 0 mm 1 m/s 752 mmHg 27%
    16:00 +36°C° 0 mm 1 m/s 752 mmHg 31%
    17:00 +34°C° 0 mm 1 m/s 752 mmHg 35%
    18:00 +34°C° 0 mm 2 m/s 752 mmHg 40%
    19:00 +31°C° 0 mm 1 m/s 753 mmHg 41%
    20:00 +30°C° 0 mm 1 m/s 753 mmHg 42%
    21:00 +29°C° 0 mm 1 m/s 754 mmHg 43%
    22:00 +28°C° 0 mm 1 m/s 754 mmHg 44%
    23:00 +28°C° 0 mm 1 m/s 754 mmHg 45%

    Poimâine, 24 Aprilie, Miercuri

    Timp Temperatura Precipitaţii Vânt Presiune Umiditate
    00:00 +28°C° 0 mm 1 m/s 754 mmHg 47%
    01:00 +27°C° 0 mm 1 m/s 754 mmHg 48%
    02:00 +27°C° 0 mm 1 m/s 754 mmHg 49%
    03:00 +26°C° 0 mm 1 m/s 753 mmHg 50%
    04:00 +26°C° 0 mm 1 m/s 754 mmHg 52%
    05:00 +26°C° 0 mm 1 m/s 754 mmHg 54%
    06:00 +26°C° 0 mm 1 m/s 754 mmHg 56%
    07:00 +28°C° 0 mm 2 m/s 755 mmHg 50%
    08:00 +31°C° 0 mm 2 m/s 755 mmHg 44%
    09:00 +34°C° 0 mm 2 m/s 755 mmHg 38%
    10:00 +36°C° 0 mm 2 m/s 755 mmHg 35%
    11:00 +38°C° 0 mm 2 m/s 755 mmHg 32%
    12:00 +39°C° 0 mm 2 m/s 754 mmHg 29%
    13:00 +40°C° 0 mm 2 m/s 754 mmHg 28%
    14:00 +40°C° 0 mm 1 m/s 753 mmHg 27%
    15:00 +40°C° 0 mm 1 m/s 752 mmHg 26%
    16:00 +37°C° 0 mm 1 m/s 752 mmHg 30%
    17:00 +36°C° 0 mm 1 m/s 752 mmHg 34%
    18:00 +34°C° 0 mm 1 m/s 751 mmHg 38%
    19:00 +33°C° 0 mm 1 m/s 752 mmHg 40%
    20:00 +32°C° 0 mm 1 m/s 753 mmHg 42%
    21:00 +31°C° 0 mm 1 m/s 753 mmHg 44%
    22:00 +30°C° 0 mm 1 m/s 753 mmHg 45%
    23:00 +30°C° 0 mm 1 m/s 753 mmHg 46%

    25 Aprilie, Joi

    Timp Temperatura Precipitaţii Vânt Presiune Umiditate
    00:00 +29°C° 0 mm 1 m/s 753 mmHg 47%
    01:00 +29°C° 0 mm 1 m/s 753 mmHg 48%
    02:00 +28°C° 0 mm 1 m/s 753 mmHg 49%
    03:00 +28°C° 0 mm 1 m/s 752 mmHg 50%
    04:00 +28°C° 0 mm 1 m/s 752 mmHg 52%
    05:00 +27°C° 0 mm 1 m/s 753 mmHg 54%
    06:00 +27°C° 0 mm 1 m/s 753 mmHg 56%
    07:00 +29°C° 0 mm 2 m/s 753 mmHg 50%
    08:00 +32°C° 0 mm 2 m/s 754 mmHg 44%
    09:00 +36°C° 0 mm 2 m/s 754 mmHg 39%
    10:00 +37°C° 0 mm 2 m/s 754 mmHg 35%
    11:00 +39°C° 0 mm 2 m/s 754 mmHg 31%
    12:00 +40°C° 0 mm 1 m/s 753 mmHg 27%
    13:00 +41°C° 0 mm 2 m/s 752 mmHg 26%
    14:00 +41°C° 0 mm 2 m/s 752 mmHg 25%
    15:00 +41°C° 0 mm 2 m/s 751 mmHg 24%
    16:00 +40°C° 0 mm 2 m/s 751 mmHg 28%
    17:00 +38°C° 0 mm 2 m/s 751 mmHg 32%
    18:00 +36°C° 0 mm 1 m/s 751 mmHg 36%
    19:00 +34°C° 0 mm 1 m/s 751 mmHg 38%
    20:00 +33°C° 0 mm 1 m/s 752 mmHg 40%
    21:00 +32°C° 0 mm 1 m/s 753 mmHg 43%
    22:00 +31°C° 0 mm 1 m/s 753 mmHg 44%
    23:00 +31°C° 0 mm 1 m/s 752 mmHg 46%

    26 Aprilie, Vineri

    Timp Temperatura Precipitaţii Vânt Presiune Umiditate
    00:00 +30°C° 0 mm 1 m/s 752 mmHg 47%
    01:00 +30°C° 0 mm 1 m/s 752 mmHg 48%
    02:00 +29°C° 0 mm 1 m/s 751 mmHg 50%
    03:00 +29°C° 0 mm 1 m/s 751 mmHg 51%
    04:00 +29°C° 0 mm 1 m/s 751 mmHg 52%
    05:00 +28°C° 0 mm 1 m/s 751 mmHg 54%
    06:00 +28°C° 0 mm 2 m/s 751 mmHg 55%
    07:00 +31°C° 0 mm 2 m/s 752 mmHg 49%
    08:00 +34°C° 0 mm 2 m/s 752 mmHg 43%
    09:00 +37°C° 0 mm 2 m/s 753 mmHg 37%
    10:00 +38°C° 0 mm 2 m/s 753 mmHg 34%
    11:00 +40°C° 0 mm 2 m/s 752 mmHg 31%
    12:00 +41°C° 0 mm 1 m/s 752 mmHg 27%
    13:00 +41°C° 0 mm 2 m/s 751 mmHg 27%
    14:00 +42°C° 0 mm 2 m/s 750 mmHg 26%
    15:00 +42°C° 0 mm 2 m/s 750 mmHg 26%
    16:00 +40°C° 0 mm 2 m/s 750 mmHg 30%
    17:00 +39°C° 0 mm 1 m/s 750 mmHg 33%
    18:00 +36°C° 0 mm 1 m/s 750 mmHg 37%
    19:00 +35°C° 0 mm 1 m/s 751 mmHg 39%
    20:00 +34°C° 0 mm 1 m/s 751 mmHg 41%
    21:00 +33°C° 0 mm 1 m/s 752 mmHg 43%
    22:00 +33°C° 0 mm 1 m/s 752 mmHg 45%
    23:00 +32°C° 0 mm 1 m/s 752 mmHg 46%

    27 Aprilie, Sâmbătă

    Timp Temperatura Precipitaţii Vânt Presiune Umiditate
    00:00 +31°C° 0 mm 1 m/s 752 mmHg 48%
    01:00 +31°C° 0 mm 1 m/s 751 mmHg 49%
    02:00 +30°C° 0 mm 1 m/s 751 mmHg 50%
    03:00 +30°C° 0 mm 1 m/s 751 mmHg 51%
    04:00 +30°C° 0 mm 1 m/s 751 mmHg 52%
    05:00 +30°C° 0 mm 1 m/s 751 mmHg 53%
    06:00 +30°C° 0 mm 1 m/s 751 mmHg 53%
    07:00 +31°C° 0 mm 1 m/s 752 mmHg 51%
    08:00 +32°C° 0 mm 1 m/s 753 mmHg 49%
    09:00 +34°C° 0 mm 1 m/s 753 mmHg 46%
    10:00 +33°C° 0 mm 1 m/s 753 mmHg 48%
    11:00 +32°C° 0 mm 1 m/s 752 mmHg 50%
    12:00 +32°C° 0 mm 1 m/s 752 mmHg 52%
    13:00 +34°C° 0 mm 1 m/s 751 mmHg 46%
    14:00 +36°C° 0 mm 1 m/s 751 mmHg 40%
    15:00 +39°C° 0 mm 1 m/s 750 mmHg 34%
    16:00 +37°C° 0 mm 1 m/s 750 mmHg 37%
    17:00 +36°C° 0 mm 1 m/s 750 mmHg 41%
    18:00 +35°C° 0 mm 1 m/s 749 mmHg 45%
    19:00 +34°C° 0.5 mm 1 m/s 750 mmHg 50%
    20:00 +32°C° 0.5 mm 1 m/s 750 mmHg 55%
    21:00 +30°C° 0.5 mm 1 m/s 751 mmHg 61%
    22:00 +30°C° 0.4 mm 1 m/s 751 mmHg 63%
    23:00 +29°C° 0.4 mm 1 m/s 751 mmHg 65%
    Arată mai mult